�N����,����,�~����,�C��,���x,�C��,����,���ϕ���,�ő�u�ԕ���,�ő厞����,���˗�,�I�_���x,�n�����x,�ő啗���N��,DTYPE
"18/09/06","00:10",0.0,20.9,90.7,1001.5,309.5,1.0,1.8,352.8,0.00,19.4,25.0,"00:00:24",1
"18/09/06","00:20",0.0,20.7,90.9,1001.2,305.8,1.1,1.9,302.8,0.00,19.2,25.0,"00:13:44",1
"18/09/06","00:30",0.0,20.7,91.3,1001.0,292.9,1.2,2.1,322.9,0.00,19.3,24.9,"00:25:44",1
"18/09/06","00:40",0.0,20.8,91.4,1001.2,288.5,1.1,1.8,331.0,0.00,19.4,24.7,"00:36:00",1
"18/09/06","00:50",0.0,20.8,91.1,1001.0,314.6,1.0,1.8,329.8,0.00,19.3,24.5,"00:43:04",1
"18/09/06","01:00",0.0,20.8,91.5,1001.5,324.6,1.2,1.7,328.1,0.00,19.4,24.8,"00:59:36",1
"18/09/06","01:10",0.0,20.7,91.7,1001.2,320.7,1.0,1.4,320.9,0.00,19.3,24.6,"01:05:28",1
"18/09/06","01:20",0.0,20.6,92.1,1001.2,296.5,1.0,1.2,325.3,0.00,19.3,24.7,"01:16:08",1
"18/09/06","01:30",0.0,20.7,92.1,1001.0,311.4,1.1,1.9,335.9,0.00,19.4,24.7,"01:26:40",1
"18/09/06","01:40",0.0,20.7,91.9,1001.5,285.7,1.0,1.2,274.8,0.00,19.4,24.7,"01:34:00",1
"18/09/06","01:50",0.0,20.7,92.0,1001.2,306.7,1.1,1.4,315.4,0.00,19.4,24.6,"01:46:00",1
"18/09/06","02:00",0.0,20.6,92.2,1001.5,312.5,1.0,1.3,313.2,0.00,19.3,24.7,"01:54:48",1
"18/09/06","02:10",0.0,20.5,92.5,1001.5,310.1,1.2,1.9,319.9,0.00,19.3,24.4,"02:05:20",1
"18/09/06","02:20",0.0,20.4,92.5,1001.2,327.0,1.1,1.8,329.4,0.00,19.2,24.5,"02:11:20",1
"18/09/06","02:30",0.0,20.3,92.8,1001.5,285.6,1.0,1.1,306.2,0.00,19.1,24.4,"02:21:52",1
"18/09/06","02:40",0.0,20.3,92.9,1001.5,297.7,0.8,1.3,314.0,0.00,19.2,24.4,"02:33:36",1
"18/09/06","02:50",0.0,20.2,93.0,1001.5,319.2,1.0,1.4,324.5,0.00,19.1,24.1,"02:42:56",1
"18/09/06","03:00",0.0,20.0,93.4,1001.9,296.3,0.8,1.2,329.6,0.00,18.9,24.2,"02:51:28",1
"18/09/06","03:10",0.0,20.1,93.4,1001.7,287.0,0.8,1.6,319.6,0.00,19.0,24.3,"03:01:36",1
"18/09/06","03:20",0.0,20.1,93.5,1001.5,297.7,0.8,1.4,323.4,0.00,19.1,24.2,"03:17:04",1
"18/09/06","03:30",0.0,20.1,93.6,1001.9,323.1,1.1,1.6,327.5,0.00,19.1,24.2,"03:22:56",1
"18/09/06","03:40",0.0,20.0,93.7,1002.2,302.9,0.8,1.3,351.9,0.00,19.0,24.1,"03:30:08",1
"18/09/06","03:50",0.0,20.1,93.9,1001.9,291.5,1.0,1.9,333.5,0.00,19.1,23.9,"03:42:24",1
"18/09/06","04:00",0.0,20.2,93.6,1001.9,298.5,1.0,1.3,321.9,0.00,19.2,24.1,"03:59:52",1
"18/09/06","04:10",0.0,20.2,93.8,1001.9,323.6,1.3,1.7,318.7,0.00,19.2,24.1,"04:07:04",1
"18/09/06","04:20",0.0,20.0,94.1,1001.9,316.0,1.0,1.3,311.2,0.00,19.1,24.2,"04:10:40",1
"18/09/06","04:30",0.0,20.1,94.5,1002.2,319.6,0.8,1.4,333.3,0.00,19.2,24.0,"04:28:24",1
"18/09/06","04:40",0.0,20.1,94.5,1002.2,319.6,1.1,1.4,325.4,0.00,19.2,24.0,"04:31:12",1
"18/09/06","04:50",0.0,20.1,94.6,1002.6,301.9,1.0,1.3,318.0,0.00,19.2,23.9,"04:40:08",1
"18/09/06","05:00",0.0,20.0,94.6,1002.6,286.2,0.8,1.2,283.0,0.00,19.1,23.8,"04:54:24",1
"18/09/06","05:10",0.0,20.0,94.6,1002.6,294.1,1.0,1.3,307.8,0.00,19.1,24.1,"05:04:32",1
"18/09/06","05:20",0.0,20.1,94.4,1002.9,287.9,0.8,1.2,269.6,0.00,19.2,24.0,"05:15:04",1
"18/09/06","05:30",0.0,20.1,94.6,1002.9,329.8,1.1,1.7,334.6,0.00,19.2,23.8,"05:27:36",1
"18/09/06","05:40",0.0,20.1,94.6,1002.6,323.3,1.2,1.7,320.6,0.00,19.2,23.7,"05:36:08",1
"18/09/06","05:50",0.0,20.0,94.9,1002.9,289.2,0.7,1.0,308.5,0.00,19.2,23.7,"05:43:28",1
"18/09/06","06:00",0.0,20.0,94.9,1002.9,299.3,1.0,1.6,317.1,0.00,19.2,23.8,"05:56:24",1
"18/09/06","06:10",0.0,20.1,95.0,1003.1,323.7,0.7,1.3,316.8,0.00,19.3,23.8,"06:02:32",1
"18/09/06","06:20",0.0,20.2,95.0,1003.1,311.4,1.0,1.4,316.4,0.00,19.4,23.8,"06:12:24",1
"18/09/06","06:30",0.0,20.3,95.1,1003.1,316.9,1.2,1.6,319.1,0.00,19.5,23.8,"06:29:44",1
"18/09/06","06:40",0.0,20.3,95.1,1003.1,302.9,0.8,1.2,315.6,0.01,19.5,23.9,"06:30:08",1
"18/09/06","06:50",0.0,20.7,95.3,1003.6,293.1,0.8,1.2,272.6,0.02,20.0,23.8,"06:44:48",1
"18/09/06","07:00",0.0,21.0,94.6,1003.6,315.6,1.2,1.9,317.6,0.03,20.1,23.6,"06:55:52",1
"18/09/06","07:10",0.0,21.1,94.2,1003.6,326.4,1.1,1.6,327.0,0.02,20.2,23.8,"07:09:28",1
"18/09/06","07:20",0.0,21.3,93.8,1003.6,312.7,1.2,1.6,320.9,0.04,20.3,23.8,"07:12:00",1
"18/09/06","07:30",0.0,21.7,93.6,1003.8,308.5,0.8,1.2,319.3,0.06,20.7,24.0,"07:22:32",1
"18/09/06","07:40",0.0,22.0,91.9,1003.6,309.0,0.7,1.1,327.9,0.07,20.7,23.9,"07:31:52",1
"18/09/06","07:50",0.0,22.9,90.0,1003.8,305.4,0.6,1.0,302.8,0.12,21.2,24.1,"07:48:48",1
"18/09/06","08:00",0.0,23.2,86.8,1004.1,295.3,0.7,1.8,335.7,0.12,20.9,24.1,"07:53:44",1
"18/09/06","08:10",0.0,23.3,85.4,1004.1,310.2,0.8,1.4,338.2,0.07,20.8,24.3,"08:09:20",1
"18/09/06","08:20",0.0,23.4,85.4,1004.1,321.2,0.8,1.6,345.1,0.06,20.9,24.2,"08:11:20",1
"18/09/06","08:30",0.0,23.9,83.8,1004.1,327.5,1.2,2.1,344.7,0.13,21.0,24.3,"08:28:08",1
"18/09/06","08:40",0.0,24.6,80.2,1003.8,339.5,0.7,1.4,333.6,0.21,21.0,24.4,"08:30:32",1
"18/09/06","08:50",0.0,25.2,76.1,1003.4,23.8,0.5,1.8,342.8,0.33,20.7,24.4,"08:48:08",1
"18/09/06","09:00",0.0,24.7,77.4,1003.6,152.8,0.3,1.1,97.5,0.15,20.5,24.5,"08:56:48",1
"18/09/06","09:10",0.0,24.7,77.5,1003.4,280.8,0.5,1.4,345.4,0.15,20.5,24.6,"09:00:08",1
"18/09/06","09:20",0.0,25.4,76.2,1003.4,333.0,0.5,1.8,324.1,0.20,20.9,24.9,"09:18:08",1
"18/09/06","09:30",0.0,26.2,76.0,1002.6,225.2,0.5,1.8,201.7,0.39,21.7,25.1,"09:29:12",1
"18/09/06","09:40",0.0,26.6,71.4,1003.4,152.3,0.8,2.0,211.9,0.44,21.0,25.2,"09:33:12",1
"18/09/06","09:50",0.0,27.0,72.3,1004.1,139.0,0.5,1.7,133.6,0.34,21.6,25.4,"09:47:36",1
"18/09/06","10:00",0.0,26.9,74.0,1003.4,358.7,0.8,2.4,5.5,0.23,21.9,25.5,"09:52:00",1
"18/09/06","10:10",0.0,26.5,73.0,1003.4,338.3,0.8,2.1,349.4,0.17,21.3,25.6,"10:01:04",1
"18/09/06","10:20",0.0,26.7,71.3,1003.4,216.2,0.8,1.9,213.5,0.22,21.1,25.8,"10:16:24",1
"18/09/06","10:30",0.0,26.6,72.4,1003.1,163.3,0.8,2.0,117.9,0.16,21.3,26.0,"10:22:24",1
"18/09/06","10:40",0.0,26.7,73.8,1002.6,179.2,1.1,2.1,229.5,0.14,21.7,25.9,"10:36:16",1
"18/09/06","10:50",0.0,26.7,73.1,1002.4,193.5,1.2,3.1,228.0,0.13,21.5,26.1,"10:46:16",1
"18/09/06","11:00",0.0,27.0,73.2,1002.6,184.5,1.1,2.5,208.0,0.18,21.8,26.0,"10:54:56",1
"18/09/06","11:10",0.0,27.2,72.5,1002.2,171.3,1.1,2.1,219.0,0.24,21.9,26.1,"11:00:48",1
"18/09/06","11:20",0.0,27.4,74.3,1002.2,178.4,1.1,3.2,202.9,0.23,22.5,26.2,"11:12:08",1
"18/09/06","11:30",0.0,27.7,69.6,1002.9,175.0,1.6,3.2,188.7,0.37,21.7,26.5,"11:28:40",1
"18/09/06","11:40",0.0,27.9,70.2,1002.6,138.7,1.1,3.2,227.7,0.29,22.0,26.4,"11:30:16",1
"18/09/06","11:50",0.0,28.0,68.4,1002.9,152.6,1.0,2.0,86.4,0.33,21.7,26.6,"11:48:08",1
"18/09/06","12:00",0.0,28.0,68.2,1002.4,112.0,1.0,2.1,180.7,0.22,21.6,26.6,"11:59:52",1
"18/09/06","12:10",0.0,27.6,67.6,1002.6,190.0,1.2,2.1,209.0,0.18,21.1,26.8,"12:00:08",1
"18/09/06","12:20",0.0,27.6,67.9,1002.4,170.8,0.8,2.4,166.7,0.05,21.2,26.7,"12:14:56",1
"18/09/06","12:30",0.0,27.3,67.9,1002.2,192.3,0.7,2.1,203.5,0.08,20.9,27.0,"12:25:20",1
"18/09/06","12:40",0.0,27.5,68.5,1001.5,151.7,1.5,3.3,134.8,0.19,21.2,26.7,"12:39:28",1
"18/09/06","12:50",0.0,27.7,67.3,1001.9,146.4,1.8,4.0,182.8,0.23,21.1,26.6,"12:48:32",1
"18/09/06","13:00",0.0,28.3,65.0,1001.7,184.6,1.3,2.7,231.0,0.27,21.1,27.1,"12:54:08",1
"18/09/06","13:10",0.0,28.2,63.5,1002.2,201.5,1.5,3.3,187.8,0.31,20.7,27.0,"13:04:16",1
"18/09/06","13:20",0.0,27.7,66.5,1001.9,183.4,1.3,2.8,188.3,0.16,20.9,27.0,"13:18:00",1
"18/09/06","13:30",0.0,28.1,65.5,1002.2,202.0,1.1,2.9,214.4,0.19,21.1,27.1,"13:20:02",1
"18/09/06","13:40",0.0,28.6,68.5,1002.2,213.2,1.8,3.7,224.9,0.23,22.3,27.0,"13:30:08",1
"18/09/06","13:50",0.0,28.1,65.8,1001.9,198.5,1.5,3.5,214.7,0.23,21.1,27.2,"13:42:40",1
"18/09/06","14:00",0.0,27.7,67.6,1002.2,159.3,1.2,2.7,143.9,0.15,21.2,27.2,"13:54:48",1
"18/09/06","14:10",0.0,28.1,64.7,1001.7,192.8,1.3,2.6,217.2,0.16,20.9,27.2,"14:09:50",1
"18/09/06","14:20",0.0,28.5,64.7,1001.7,191.1,1.8,4.2,197.3,0.31,21.2,27.3,"14:10:16",1
"18/09/06","14:30",0.0,28.7,62.2,1001.9,181.8,1.6,3.3,150.7,0.27,20.8,27.3,"14:20:48",1
"18/09/06","14:40",0.0,28.3,59.8,1001.7,224.1,1.2,3.3,191.6,0.15,19.8,27.3,"14:39:04",1
"18/09/06","14:50",0.0,28.0,61.0,1001.5,287.0,1.0,2.0,302.4,0.11,19.8,27.5,"14:43:28",1
"18/09/06","15:00",0.0,28.4,60.4,1001.2,243.0,1.0,2.4,240.4,0.10,20.0,27.2,"14:57:12",1
"18/09/06","15:10",0.0,28.2,60.6,1001.5,196.5,1.0,1.9,183.3,0.09,19.9,27.2,"15:06:24",1
"18/09/06","15:20",0.0,27.5,65.2,1000.8,196.9,1.1,2.7,198.1,0.09,20.4,27.5,"15:12:00",1
"18/09/06","15:30",0.0,27.8,62.2,1000.3,178.5,1.0,2.0,183.1,0.08,19.9,27.2,"15:26:32",1
"18/09/06","15:40",0.0,28.1,61.3,1000.3,212.5,1.0,2.0,222.4,0.08,20.0,27.1,"15:31:28",1
"18/09/06","15:50",0.0,28.1,61.0,1000.8,266.0,0.8,3.4,224.7,0.05,19.9,27.3,"15:43:52",1
"18/09/06","16:00",0.0,27.8,65.1,1000.5,315.2,0.8,2.0,345.1,0.04,20.7,27.2,"15:58:32",1
"18/09/06","16:10",0.0,27.8,66.8,1000.8,351.7,1.1,2.4,348.1,0.07,21.1,27.1,"16:03:20",1
"18/09/06","16:20",0.0,26.9,73.3,1001.0,353.9,1.2,1.9,345.2,0.09,21.8,27.2,"16:14:48",1
"18/09/06","16:30",0.0,27.3,70.3,1001.2,322.7,1.1,2.1,341.4,0.07,21.5,27.0,"16:21:04",1
"18/09/06","16:40",0.0,27.3,69.8,1001.2,310.5,0.8,1.7,341.1,0.05,21.3,27.1,"16:34:16",1
"18/09/06","16:50",0.0,27.5,71.9,1001.5,323.7,0.8,1.7,341.1,0.07,22.0,26.9,"16:40:16",1
"18/09/06","17:00",0.0,27.5,71.4,1001.2,335.6,1.1,1.8,347.0,0.11,21.9,26.8,"16:55:12",1
"18/09/06","17:10",0.0,27.9,68.8,1001.2,342.7,0.7,1.6,346.1,0.06,21.7,27.0,"17:02:08",1
"18/09/06","17:20",0.0,27.7,70.4,1001.2,343.3,0.7,1.3,359.5,0.04,21.9,26.9,"17:10:08",1
"18/09/06","17:30",0.0,27.2,72.8,1001.5,328.8,1.0,2.6,345.3,0.03,21.9,26.8,"17:20:02",1
"18/09/06","17:40",0.0,26.8,73.5,1001.2,312.3,1.0,2.5,341.4,0.02,21.7,26.8,"17:30:16",1
"18/09/06","17:50",0.0,26.6,75.0,1001.5,325.0,0.8,1.2,330.2,0.01,21.8,26.7,"17:46:48",1
"18/09/06","18:00",0.0,26.1,77.2,1001.5,320.1,0.8,1.2,322.6,0.00,21.8,26.6,"17:55:04",1
"18/09/06","18:10",0.0,25.7,78.7,1001.7,291.4,0.6,1.0,318.4,0.00,21.8,26.7,"18:04:48",1
"18/09/06","18:20",0.0,25.4,80.0,1002.2,284.0,0.7,1.3,250.0,0.00,21.7,26.6,"18:12:08",1
"18/09/06","18:30",0.0,25.2,80.8,1002.2,326.7,1.3,2.5,337.5,0.00,21.7,26.5,"18:27:52",1
"18/09/06","18:40",0.0,25.0,80.9,1002.2,328.0,1.5,2.5,305.6,0.00,21.5,26.6,"18:38:40",1
"18/09/06","18:50",0.0,24.9,81.2,1002.2,13.9,0.5,1.0,279.6,0.00,21.5,26.4,"18:40:08",1
"18/09/06","19:00",0.0,24.4,82.7,1002.2,271.9,0.7,1.3,267.3,0.00,21.3,26.3,"18:58:24",1
"18/09/06","19:10",0.0,24.4,82.5,1002.4,288.9,0.8,1.4,312.9,0.00,21.3,26.4,"19:07:12",1
"18/09/06","19:20",0.0,24.5,82.0,1002.6,344.8,1.3,2.2,340.1,0.00,21.3,26.3,"19:16:40",1
"18/09/06","19:30",0.0,24.1,83.3,1002.9,278.1,0.6,1.2,322.4,0.00,21.1,26.3,"19:21:28",1
"18/09/06","19:40",0.0,24.2,83.4,1002.9,324.9,1.2,2.0,335.1,0.00,21.2,26.2,"19:34:40",1
"18/09/06","19:50",0.0,23.9,84.8,1002.6,299.9,0.7,1.6,325.4,0.00,21.2,26.0,"19:49:28",1
"18/09/06","20:00",0.0,23.7,85.2,1003.4,304.7,1.1,1.8,312.4,0.00,21.1,26.0,"19:53:36",1
"18/09/06","20:10",0.0,23.8,85.1,1002.9,330.6,1.3,2.1,329.9,0.00,21.2,25.7,"20:01:44",1
"18/09/06","20:20",0.0,23.7,85.4,1003.4,283.0,0.6,1.1,315.2,0.00,21.1,25.8,"20:19:52",1
"18/09/06","20:30",0.0,23.6,85.9,1002.9,297.9,0.8,1.2,299.6,0.00,21.1,25.8,"20:20:40",1
"18/09/06","20:40",0.0,23.5,86.2,1003.4,286.3,1.0,1.3,316.1,0.00,21.1,25.7,"20:39:36",1
"18/09/06","20:50",0.0,23.6,85.8,1003.1,296.8,0.8,1.2,309.5,0.00,21.1,25.7,"20:40:16",1
"18/09/06","21:00",0.0,23.7,86.1,1003.6,301.4,1.0,1.6,321.0,0.00,21.3,25.8,"20:50:56",1
"18/09/06","21:10",0.0,23.6,86.5,1003.6,296.9,0.8,1.2,297.2,0.00,21.3,25.6,"21:00:02",1
"18/09/06","21:20",0.0,23.5,86.5,1003.6,298.8,1.0,1.6,331.2,0.00,21.2,25.7,"21:10:24",1
"18/09/06","21:30",0.0,23.6,86.5,1003.6,288.2,0.7,1.2,313.0,0.00,21.3,25.7,"21:21:36",1
"18/09/06","21:40",0.0,23.6,86.5,1003.6,283.9,1.0,1.6,321.0,0.00,21.3,25.5,"21:39:04",1
"18/09/06","21:50",0.0,23.6,87.4,1003.6,305.5,1.1,1.8,321.9,0.00,21.4,25.5,"21:40:24",1
"18/09/06","22:00",0.0,23.6,88.0,1004.3,311.6,1.1,1.6,319.4,0.00,21.5,25.5,"21:57:52",1
"18/09/06","22:10",0.0,23.3,88.9,1004.1,312.4,0.8,1.3,311.9,0.00,21.4,25.6,"22:05:12",1
"18/09/06","22:20",0.0,23.2,89.4,1004.3,290.4,1.0,1.4,319.1,0.00,21.4,25.5,"22:13:12",1
"18/09/06","22:30",0.0,23.1,89.7,1003.6,286.9,0.8,1.3,300.9,0.00,21.4,25.7,"22:29:12",1
"18/09/06","22:40",0.0,23.1,89.7,1003.8,291.0,1.1,1.8,312.7,0.00,21.4,25.5,"22:33:52",1
"18/09/06","22:50",0.0,23.1,89.6,1003.8,296.7,1.0,1.6,322.7,0.00,21.3,25.5,"22:40:24",1
"18/09/06","23:00",0.0,23.2,89.3,1004.1,286.7,0.7,1.3,243.1,0.00,21.4,25.3,"22:56:24",1
"18/09/06","23:10",0.0,23.3,89.3,1003.8,313.1,0.7,1.3,332.5,0.00,21.5,25.2,"23:08:24",1
"18/09/06","23:20",0.0,23.5,89.3,1003.8,322.2,1.0,2.2,330.6,0.00,21.7,25.5,"23:16:08",1
"18/09/06","23:30",0.0,23.3,89.7,1003.6,335.5,1.3,2.1,337.4,0.00,21.6,25.3,"23:27:12",1
"18/09/06","23:40",0.2,23.3,90.1,1003.6,281.3,0.8,1.7,241.8,0.00,21.6,25.4,"23:32:48",1
"18/09/06","23:50",0.4,23.2,90.6,1003.8,322.6,1.1,1.8,320.4,0.00,21.6,25.3,"23:45:12",1
"18/09/06","24:00",0.8,23.2,91.0,1003.6,7.5,0.8,2.0,348.2,0.00,21.7,25.3,"23:53:20",1
